TimeCDT,TemperatureF,Dew PointF,Humidity,Sea Level PressureIn,VisibilityMPH,Wind Direction,Wind SpeedMPH,Gust SpeedMPH,PrecipitationIn,Events,Conditions,WindDirDegrees,DateUTC
12:15 AM,50.0,44.1,80,30.14,10.0,Calm,Calm,-,N/A,,Clear,0,2013-09-14 05:15:00
12:35 AM,50.4,44.6,81,30.14,10.0,Calm,Calm,-,N/A,,Clear,0,2013-09-14 05:35:00
12:55 AM,49.8,44.6,82,30.14,10.0,Calm,Calm,-,N/A,,Clear,0,2013-09-14 05:55:00
1:15 AM,49.1,44.4,84,30.14,10.0,Calm,Calm,-,N/A,,Clear,0,2013-09-14 06:15:00
1:35 AM,46.4,43.2,88,30.15,10.0,Calm,Calm,-,N/A,,Clear,0,2013-09-14 06:35:00
1:55 AM,48.9,45.5,88,30.14,10.0,Calm,Calm,-,N/A,,Clear,0,2013-09-14 06:55:00
2:15 AM,48.7,45.1,87,30.14,10.0,Calm,Calm,-,N/A,,Clear,0,2013-09-14 07:15:00
2:35 AM,45.3,44.8,98,30.14,10.0,Calm,Calm,-,N/A,,Clear,0,2013-09-14 07:35:00
2:55 AM,44.1,43.9,99,30.14,10.0,Calm,Calm,-,N/A,,Clear,0,2013-09-14 07:55:00
3:15 AM,44.8,44.8,100,30.14,10.0,Calm,Calm,-,N/A,,Clear,0,2013-09-14 08:15:00
3:35 AM,41.5,41.5,100,30.15,10.0,Calm,Calm,-,N/A,,Clear,0,2013-09-14 08:35:00
3:55 AM,42.4,42.4,100,30.15,10.0,Calm,Calm,-,N/A,,Clear,0,2013-09-14 08:55:00
4:15 AM,44.6,44.6,100,30.15,10.0,Calm,Calm,-,N/A,,Clear,0,2013-09-14 09:15:00
4:35 AM,43.2,43.2,100,30.15,10.0,Calm,Calm,-,N/A,,Clear,0,2013-09-14 09:35:00
4:55 AM,43.0,43.0,100,30.15,10.0,Calm,Calm,-,N/A,,Clear,0,2013-09-14 09:55:00
5:15 AM,43.5,43.5,100,30.15,10.0,Calm,Calm,-,N/A,,Clear,0,2013-09-14 10:15:00
5:35 AM,41.4,41.4,100,30.16,10.0,WNW,3.5,-,N/A,,Clear,300,2013-09-14 10:35:00
5:55 AM,42.6,42.6,100,30.17,2.0,NW,4.6,-,N/A,,Scattered Clouds,310,2013-09-14 10:55:00
6:15 AM,42.6,42.6,100,30.17,10.0,NW,3.5,-,N/A,,Scattered Clouds,310,2013-09-14 11:15:00
6:35 AM,43.9,43.9,100,30.18,5.0,NW,3.5,-,N/A,,Clear,310,2013-09-14 11:35:00
6:55 AM,43.0,43.0,100,30.18,5.0,Calm,Calm,-,N/A,,Clear,0,2013-09-14 11:55:00
7:15 AM,43.9,43.9,100,30.18,10.0,Calm,Calm,-,N/A,,Clear,0,2013-09-14 12:15:00
7:35 AM,45.9,45.9,100,30.18,5.0,Calm,Calm,-,N/A,,Clear,0,2013-09-14 12:35:00
7:55 AM,49.5,49.5,100,30.19,7.0,Calm,Calm,-,N/A,,Clear,0,2013-09-14 12:55:00
8:15 AM,50.9,50.5,99,30.18,7.0,Calm,Calm,-,N/A,,Clear,0,2013-09-14 13:15:00
8:35 AM,52.9,49.6,89,30.18,10.0,Calm,Calm,-,N/A,,Clear,0,2013-09-14 13:35:00
8:55 AM,55.6,49.3,79,30.19,10.0,Calm,Calm,-,N/A,,Clear,0,2013-09-14 13:55:00
9:15 AM,57.4,47.8,70,30.19,10.0,South,4.6,-,N/A,,Clear,170,2013-09-14 14:15:00
9:35 AM,59.5,46.9,63,30.19,10.0,South,5.8,-,N/A,,Clear,190,2013-09-14 14:35:00
9:55 AM,61.0,46.4,59,30.19,10.0,South,4.6,-,N/A,,Clear,180,2013-09-14 14:55:00
10:15 AM,61.7,45.3,55,30.19,10.0,SSW,3.5,-,N/A,,Clear,200,2013-09-14 15:15:00
10:35 AM,63.1,45.7,53,30.19,10.0,South,3.5,-,N/A,,Clear,190,2013-09-14 15:35:00
10:55 AM,64.2,45.5,51,30.19,10.0,South,5.8,-,N/A,,Clear,190,2013-09-14 15:55:00
11:15 AM,64.6,44.6,48,30.18,10.0,SSE,6.9,-,N/A,,Clear,160,2013-09-14 16:15:00
11:35 AM,66.2,44.4,45,30.18,10.0,SSE,3.5,-,N/A,,Clear,160,2013-09-14 16:35:00
11:55 AM,66.7,44.4,44,30.17,10.0,SSW,5.8,-,N/A,,Clear,200,2013-09-14 16:55:00
12:15 PM,66.7,41.5,40,30.16,10.0,Calm,Calm,-,N/A,,Clear,0,2013-09-14 17:15:00
12:35 PM,67.8,42.4,40,30.16,10.0,SSW,5.8,-,N/A,,Clear,200,2013-09-14 17:35:00
12:55 PM,68.4,43.0,40,30.15,10.0,SE,4.6,-,N/A,,Clear,130,2013-09-14 17:55:00
1:15 PM,69.1,43.2,39,30.14,10.0,SSE,4.6,-,N/A,,Clear,160,2013-09-14 18:15:00
1:35 PM,70.0,43.3,38,30.13,10.0,ESE,5.8,-,N/A,,Clear,110,2013-09-14 18:35:00
1:55 PM,70.9,42.1,35,30.13,10.0,SSE,6.9,-,N/A,,Clear,160,2013-09-14 18:55:00
2:15 PM,71.4,42.1,35,30.12,10.0,South,8.1,-,N/A,,Clear,180,2013-09-14 19:15:00
2:35 PM,71.4,41.4,34,30.11,10.0,SW,9.2,-,N/A,,Clear,220,2013-09-14 19:35:00
2:55 PM,71.8,40.6,32,30.11,10.0,SSE,6.9,-,N/A,,Clear,160,2013-09-14 19:55:00
3:15 PM,72.5,41.5,33,30.10,10.0,South,4.6,-,N/A,,Clear,180,2013-09-14 20:15:00
3:35 PM,72.1,41.2,33,30.09,10.0,SSE,8.1,-,N/A,,Clear,160,2013-09-14 20:35:00
3:55 PM,71.8,41.0,33,30.08,10.0,South,5.8,-,N/A,,Clear,170,2013-09-14 20:55:00
4:15 PM,70.7,40.3,33,30.07,10.0,South,4.6,-,N/A,,Clear,170,2013-09-14 21:15:00
4:35 PM,71.4,40.1,32,30.07,10.0,South,8.1,-,N/A,,Clear,170,2013-09-14 21:35:00
4:55 PM,70.0,40.5,34,30.07,10.0,South,5.8,-,N/A,,Clear,170,2013-09-14 21:55:00
5:15 PM,67.3,43.5,42,30.07,10.0,South,4.6,-,N/A,,Clear,170,2013-09-14 22:15:00
5:35 PM,66.2,44.8,46,30.07,10.0,South,4.6,-,N/A,,Clear,180,2013-09-14 22:35:00
5:55 PM,68.0,43.0,40,30.06,10.0,South,8.1,-,N/A,,Clear,170,2013-09-14 22:55:00
6:15 PM,66.2,45.5,47,30.07,10.0,South,4.6,-,N/A,,Clear,180,2013-09-14 23:15:00
6:35 PM,65.1,44.4,47,30.06,10.0,SSE,4.6,-,N/A,,Clear,150,2013-09-14 23:35:00
6:55 PM,64.2,42.6,45,30.06,10.0,SE,4.6,-,N/A,,Clear,140,2013-09-14 23:55:00
7:15 PM,63.3,41.9,46,30.06,10.0,SE,4.6,-,N/A,,Clear,130,2013-09-15 00:15:00
7:35 PM,62.8,41.5,46,30.06,10.0,ESE,3.5,-,N/A,,Clear,120,2013-09-15 00:35:00
7:55 PM,61.7,41.9,48,30.06,10.0,ESE,4.6,-,N/A,,Clear,120,2013-09-15 00:55:00
8:15 PM,59.7,43.7,55,30.06,10.0,ESE,4.6,-,N/A,,Clear,120,2013-09-15 01:15:00
8:35 PM,61.0,43.7,53,30.06,10.0,SE,3.5,-,N/A,,Clear,140,2013-09-15 01:35:00
8:55 PM,59.7,44.1,56,30.06,10.0,SE,3.5,-,N/A,,Clear,140,2013-09-15 01:55:00
9:15 PM,58.3,44.6,60,30.05,10.0,SSE,4.6,-,N/A,,Clear,150,2013-09-15 02:15:00
9:35 PM,58.6,43.7,58,30.06,10.0,SSE,4.6,-,N/A,,Clear,160,2013-09-15 02:35:00
9:55 PM,57.6,42.3,57,30.05,10.0,SSE,4.6,-,N/A,,Clear,160,2013-09-15 02:55:00
10:15 PM,55.6,42.4,61,30.05,10.0,SSE,5.8,-,N/A,,Clear,160,2013-09-15 03:15:00
10:35 PM,55.2,42.4,62,30.05,10.0,SSE,4.6,-,N/A,,Clear,160,2013-09-15 03:35:00
10:55 PM,55.0,42.4,63,30.05,10.0,SSE,4.6,-,N/A,,Clear,160,2013-09-15 03:55:00
11:15 PM,54.1,42.8,66,30.05,10.0,SSE,5.8,-,N/A,,Clear,160,2013-09-15 04:15:00
11:35 PM,53.1,42.8,68,30.04,10.0,SSE,5.8,-,N/A,,Clear,160,2013-09-15 04:35:00
11:55 PM,52.7,42.8,69,30.04,10.0,South,4.6,-,N/A,,Clear,190,2013-09-15 04:55:00